|
NORAD ID: 8710 Int'l Code: 1976-019B
Perigee: 996.2 km
Apogee: 1,018.9 km
Inclination: 69.7 °
Period: 105.1 minutes
Semi major axis: 7378 km
Launch date: February 29, 1976
Source: Japan (JPN)
Note: This is a ROCKET BODY
Two Line Element Set (TLE):
1 08710U 76019B 13144.41220235 -.00000018 00000-0 38573-4 0 8945
2 08710 069.6780 044.8904 0015399 247.7274 160.2785 13.69776208861826
Source:
NASA's NSSDC Master Catalog entry for N-1 R/B
|